Showing default

ORBASTRO-JEN1, 69006

Orbit data source: Space-Track

ORBASTRO-JEN1, 69006 is a payload satellite owned by OrbAstro (UK) in SSO that was launched on Sun, 03 May 2026 UTC via an FALCON 9 launch vehicle from the Air Force Western Test Range (AFWTR). Payload-class satellites include a variety of spacecraft equipped with specific instruments for various scientific and technological missions. These include communications satellites like Starlink; space stations such as the ISS; scientific satellites like the Hubble; Earth observation satellites from companies like Planet Labs, Umbra, and HawkEye 360; GPS; miniature CubeSats for education and research; and military/defense satellites.

Loading next visibility...
Identifier
69006, 2026-100AC
Orbit
SSO
Country
Flag of UKUK
Related business
Manufacturer
OrbAstro
Mission
Operational spacecraft
Bus & Motor
CUBESAT 6U, Unknown motor
Mass
~10 kg wet, ~10 kg dry
Launch date (UTC)
2026-05-03 (2 months ago)
Launch vehicle
FALCON 9
Launch site
Air Force Western Test Range (AFWTR)
Object type
Payload
Rocket body
Debris
Shape & HBR
Unknown shape, 14.5 m
Radar Cross Section
Medium (>0.1 m² and <1 m²)

Expand to show TLE details & history
Last TLE update: 14 hours ago

TLE from 14 hours ago
0 ORBASTRO-JEN1
1 69006U 26100AC  26175.20726010  .00004324  00000-0  20230-3 0  9992
2 69006  97.4046  72.8902 0004017  12.5472 347.5862 15.20273136  7871
Epoch: 2026-06-24T04:58Z
TLE epoch observation values (Epoch: 2026-06-24T04:58:27.272Z)
Latitude
-0.00009°
Longitude
85.90879°
Altitude
505.406 km
Speed
7.613 km/s
True Right ascension
04h 51m 33s
True Declination
0° 00' 00"
Sunlit
Object was in daylight at epoch
Visualization orbit readout
Latitude
Unknown
Longitude
Unknown
Altitude
Unknown
Speed
Unknown
Apparent Right ascension
Unknown
Apparent Declination
Unknown
Sunlit
N/A
Visualization observer readout
Local Sidereal Time
06:01:14
Azimuth
Unknown
Elevation
Unknown
Doppler factor
Unknown
Orbital elements
Apogee altitude
504.745 km
Perigee altitude
499.218 km
Semi-major axis
6,880.118 km
Eccentricity
0.0004
Inclination
97.4046°
RAAN
72.8902°
Arg. of periapsis
12.5472°
True anomaly
347.5763°
Mean anomaly
347.5862°
Eccentric anomaly
347.58125°
Mean motion
3.8032 °/min
Orbital period
94.66 mins
BSTAR
0.0002023
Loading maneuver chart data...
Computing Atmospheric mass density...
Loading historical data...
Loading historical data...
Loading historical data...
Loading historical data...
Loading historical data...
Loading historical data...
Loading historical data...

Documentation

Showing up to 5 results
|